CW4354 Weather Reports


time (UTC)temp
F
wind
direction
speed
knots
gust
knots
rain 1hr
in
rain 24hr
in
rain mn
in
humidity
%
barometer
mb
20260510130051 54 0 0.0 0.0 0.00 0.28 0.00 97 1013.3
20260510124543 53 0 0.0 0.0 0.00 0.28 0.00 97 1013.3
20260510123042 52 0 0.0 0.0 0.00 0.28 0.00 97 1012.9
20260510121553 52 0 0.0 0.0 0.00 0.28 0.00 97 1012.7
20260510120040 52 0 0.0 0.0 0.00 0.28 0.00 98 1012.5
20260510114550 51 0 0.0 0.0 0.00 0.28 0.00 98 1012.4
20260510113045 51 0 0.0 0.0 0.00 0.28 0.00 98 1011.9
20260510111551 51 0 0.0 0.0 0.00 0.28 0.00 97 1012.1
20260510110053 50 0 0.0 0.0 0.00 0.28 0.00 98 1012.1
20260510104607 50 0 0.0 0.0 0.00 0.28 0.00 97 1011.9
20260510103052 49 0 0.0 0.0 0.00 0.28 0.00 97 1011.9
20260510101548 49 0 0.0 0.0 0.00 0.28 0.00 96 1011.7
20260510100056 50 0 0.0 0.0 0.00 0.28 0.00 96 1011.6
20260510094555 50 0 0.0 0.0 0.00 0.28 0.00 97 1011.5
20260510093051 50 0 0.0 0.0 0.00 0.28 0.00 97 1011.5
20260510091553 50 0 0.0 0.0 0.00 0.28 0.00 97 1011.6
20260510090054 50 0 0.0 0.0 0.00 0.28 0.00 97 1011.6
20260510084558 50 0 0.0 0.0 0.00 0.28 0.00 97 1011.7
20260510083052 50 0 0.0 0.0 0.00 0.28 0.00 97 1011.9
20260510081601 50 0 0.0 0.0 0.00 0.28 0.00 97 1011.9
20260510080047 51 0 0.0 0.0 0.00 0.28 0.00 96 1011.9
20260510074616 51 0 0.0 0.0 0.00 0.28 0.00 97 1011.5
20260510073048 51 0 0.0 0.0 0.00 0.28 0.00 97 1011.0
20260510071555 51 0 0.0 0.0 0.00 0.28 0.00 97 1010.9
20260510070051 52 0 0.0 0.0 0.00 0.28 0.00 97 1011.1
20260510064603 52 0 0.0 0.0 0.00 0.28 0.00 97 1011.2
20260510063056 52 0 0.0 0.0 0.00 0.28 0.00 97 1011.2
20260510061545 51 0 0.0 0.0 0.00 0.28 0.00 97 1011.4
20260510060051 51 0 0.0 0.0 0.00 0.28 0.00 97 1011.0
20260510054550 51 0 0.0 0.0 0.00 0.28 0.00 97 1010.9
20260510053050 51 0 0.0 0.0 0.00 0.28 0.00 97 1011.1
20260510051559 50 0 0.0 0.0 0.00 0.28 0.00 97 1011.1
20260510050047 50 0 0.0 0.0 0.00 0.28 0.00 97 1011.3
20260510044542 50 0 0.0 0.0 0.00 0.28 0.00 97 1011.3
20260510043055 49 0 0.0 0.0 0.00 0.28 0.00 97 1011.3
20260510041605 49 0 0.0 0.0 0.00 0.28 0.00 97 1011.4
20260510040049 48 0 0.0 0.0 0.00 0.28 0.00 97 1011.4
20260510034551 48 0 0.0 0.0 0.00 0.28 0.28 97 1011.2
20260510033050 47 0 0.0 0.0 0.00 0.28 0.28 97 1011.1
20260510031553 47 0 0.0 0.0 0.00 0.28 0.28 96 1011.1
20260510030050 47 0 0.0 0.0 0.00 0.28 0.28 95 1011.1
20260510024554 47 0 0.0 0.0 0.00 0.28 0.28 95 1010.8
20260510023049 47 0 0.0 0.0 0.00 0.28 0.28 95 1010.8
20260510021548 48 0 0.0 0.0 0.00 0.28 0.28 95 1010.9
20260510020053 48 0 0.0 0.0 0.00 0.28 0.28 95 1010.8
20260510014546 49 0 0.0 0.0 0.00 0.28 0.28 95 1010.9
20260510013055 49 0 0.0 0.0 0.00 0.28 0.28 94 1010.8
20260510011549 50 0 0.0 0.0 0.00 0.28 0.28 94 1010.7
20260510010058 50 0 0.0 0.0 0.00 0.28 0.28 93 1010.8
20260510004557 51 0 0.0 0.0 0.00 0.28 0.28 93 1010.4
20260510003050 53 0 0.0 0.0 0.00 0.28 0.28 93 1010.3
20260510001545 54 0 0.0 0.0 0.00 0.28 0.28 93 1010.1
20260510000055 54 0 0.0 0.0 0.00 0.28 0.28 94 1010.1
20260509234601 55 0 0.0 0.0 0.00 0.28 0.28 94 1010.2
20260509233048 55 0 0.0 0.0 0.00 0.28 0.28 93 1010.0
20260509231550 55 0 0.0 0.0 0.00 0.28 0.28 93 1009.9
20260509230049 56 0 0.0 0.0 0.00 0.28 0.28 93 1009.7
20260509224541 56 0 0.0 0.0 0.00 0.28 0.28 94 1009.9
20260509223049 56 0 0.0 0.0 0.00 0.28 0.28 93 1009.8
20260509221604 56 0 0.0 0.0 0.00 0.28 0.28 92 1009.9
20260509220100 57 0 0.0 0.0 0.00 0.28 0.28 94 1009.9
20260509214554 57 0 0.0 0.0 0.00 0.28 0.28 93 1010.1
20260509213050 57 0 0.0 0.0 0.01 0.28 0.28 94 1010.0
20260509211546 56 0 0.0 0.0 0.02 0.28 0.28 96 1010.1
20260509210054 55 0 0.0 0.0 0.03 0.28 0.28 96 1010.0
20260509204552 54 0 0.0 0.0 0.05 0.28 0.28 95 1010.0
20260509203054 54 0 0.0 0.0 0.07 0.27 0.27 94 1010.2
20260509201541 54 0 0.0 0.0 0.08 0.26 0.26 94 1010.2
20260509200050 54 0 0.0 0.0 0.08 0.25 0.25 94 1010.4
20260509194544 55 0 0.0 0.0 0.09 0.23 0.23 93 1010.6
20260509193100 55 0 0.0 0.0 0.09 0.20 0.20 92 1011.1
20260509191609 55 0 0.0 0.0 0.10 0.18 0.18 93 1011.3
20260509184547 56 0 0.0 0.0 0.10 0.14 0.14 93 1011.3
20260509183044 56 0 0.0 0.0 0.09 0.11 0.11 92 1011.5
20260509181551 56 0 0.0 0.0 0.08 0.08 0.08 91 1011.3
20260509180042 57 0 0.0 0.0 0.05 0.05 0.05 90 1011.1
20260509174550 57 0 0.0 0.0 0.04 0.04 0.04 89 1011.0
20260509173055 59 0 0.0 0.0 0.02 0.02 0.02 84 1011.6
20260509171556 60 0 0.0 0.0 0.00 0.00 0.00 82 1011.7
20260509170045 61 0 0.0 0.0 0.00 0.00 0.00 79 1011.5
20260509164553 61 0 0.0 0.0 0.00 0.00 0.00 77 1011.2
20260509163106 61 0 0.0 0.0 0.00 0.00 0.00 75 1011.5
20260509161555 61 0 0.0 0.0 0.00 0.00 0.00 78 1011.5
20260509160048 61 0 0.0 0.0 0.00 0.00 0.00 76 1011.7
20260509154552 61 0 0.0 0.0 0.00 0.00 0.00 77 1011.8
20260509153049 60 0 0.0 0.0 0.00 0.00 0.00 78 1011.7
20260509151559 59 0 0.0 0.0 0.00 0.00 0.00 81 1012.0
20260509150051 58 0 0.0 0.0 0.00 0.00 0.00 80 1012.0
20260509144550 58 0 0.0 0.0 0.00 0.00 0.00 80 1011.9
20260509143045 57 0 0.0 0.0 0.00 0.00 0.00 83 1012.0
20260509141552 57 0 0.0 0.0 0.00 0.00 0.00 81 1011.9
20260509140050 57 0 0.0 0.0 0.00 0.00 0.00 79 1011.8
20260509134555 56 0 0.0 0.0 0.00 0.00 0.00 80 1011.6
20260509133048 55 0 0.0 0.0 0.00 0.00 0.00 83 1011.7
20260509131558 54 0 0.0 0.0 0.00 0.00 0.00 85 1011.7